Track COSMOS 1500 now! 10-day predictions COSMOS 1500 is classified as:
1 14372U 83099A 23087.36472255 .00015272 00000-0 59592-3 0 9990 2 14372 82.5136 52.4321 0010203 295.2564 64.7616 15.25756421157821